sat.trackr.live / text

‹ back to catalog

STARLINK-31585

NORAD 59608 · 2024-080H

PAYLOAD ACTIVE UNKNOWN

§ Identity

Operator
Country
US
Launch date
2024-04-28
Launch site
AFETR
Launch vehicle
Mass (kg)
RCS (m²)

Purposes: comms

External: N2YO · Heavens-Above · Gunter

§ Orbital elements

Epoch: 2026-09-21T07:05:15.704160Z

Period
94.27 min
Inclination
43.0060°
Eccentricity
0.0001840
Mean motion
15.27579239 rev/d
Perigee alt
481.8 km
Apogee alt
484.3 km
Semi-major
6,861.2 km
B*
4.4966e-5
RAAN
9.2819°
Arg perigee
287.0715°
Mean anomaly
72.9935°
Rev number
13,450

§ Raw data

STARLINK-315851 59608U 24080H   26264.29532065  .00000975  00000+0  44966-4 0  99972 59608  43.0060   9.2819 0001840 287.0715  72.9935 15.27579239134503

JSON: /api/v1/satellites/59608 · /tle

For live sub-satellite position, see the globe view (requires WebGL).

§ Visibility from observer

Set your observer location to see the next 7 days of passes ≥ 10°. The values pass through the URL so the page stays shareable.

No JS? Fill the form by hand. The geolocation button needs JavaScript.